Location: Bernay
(48.6766°N, 2.9386°E)
Time: 17:37:21
(UTC+00:00)

Resurs 1-3 - Pass Details

Date: 12 January 2026
Orbit: 612 x 615 km, 97.7° (Epoch: 18 February)

Event Time Altitude Azimuth Distance (km) Brightness Sun altitude
Rises 18:21:44 0° 173° (S) 2,874 7.0 -20.1°
Reaches altitude 10° 18:23:56 10° 177° (S) 1,973 6.2 -20.4°
Maximum altitude 18:28:11 63° 259° (W) 692 4.0 -21.1°
Drops below altitude 10° 18:32:29 10° 341° (NNW) 1,989 6.3 -21.8°
Sets 18:34:42 0° 345° (NNW) 2,899 7.1 -22.2°
